Wind_Speed
7 8 9 10 10 10 11 11 11 11 11 11 11 11 11 10 10 9 9 10 11 12 13 15 17 18 18 18 18 18 18 18 17 17 17 17 17 17 17 18 18 18 18 19 19 19 19 19 18 18 18 18 18 18 19 19 19 20 21 21 21 21 22 22 22 22 22 23 23
6 6 7 8 9 10 11 11 12 12 12 12 12 12 12 11 11 10 10 10 10 11 12 13 15 16 17 18 18 19 19 19 19 19 18 18 18 19 19 19 19 19 20 20 20 20 20 20 20 19 19 19 19 19 19 19 19 20 21 21 21 22 22 22 22 22 22 23 23
6 6 7 7 8 9 10 11 11 12 12 13 13 13 13 12 12 12 11 11 11 11 12 12 13 14 15 16 18 18 19 19 19 20 20 20 20 20 21 20 20 20 21 21 21 21 21 21 21 21 20 20 19 19 19 20 20 21 21 22 22 22 22 22 22 22 23 23 24
7 7 7 7 7 8 9 9 10 11 12 13 14 14 14 14 14 13 13 12 12 12 12 12 12 13 13 14 16 17 18 19 19 20 21 21 21 21 21 21 21 21 21 22 22 23 23 23 23 23 22 21 20 20 20 21 21 22 22 23 23 23 23 23 23 23 23 24 24
8 8 8 8 8 8 9 9 10 11 12 13 13 14 14 14 14 14 14 14 13 13 13 13 13 13 13 14 14 15 17 18 19 20 20 21 21 21 21 21 21 21 22 22 23 23 24 25 25 25 24 24 23 22 22 22 23 24 24 24 24 24 24 24 24 25 25 25 26
10 9 9 9 9 9 9 10 10 11 11 12 12 13 14 14 15 15 15 15 14 14 14 14 14 14 14 14 14 15 16 17 18 19 20 20 21 21 21 20 20 20 21 21 22 23 24 25 26 27 27 27 26 25 25 25 25 26 27 27 26 26 26 26 26 26 26 27 27
12 11 10 10 10 10 10 10 11 11 12 12 12 12 13 14 14 15 15 15 15 15 15 15 15 15 15 15 15 16 16 17 18 19 20 20 20 20 20 20 20 20 20 20 21 22 23 25 26 27 28 29 28 28 28 27 28 28 29 29 28 28 27 27 27 27 27 28 28
13 13 12 12 11 11 11 11 11 12 12 12 12 13 13 13 14 14 15 16 16 16 16 16 16 16 16 16 16 16 17 18 19 20 20 21 20 20 20 20 20 20 20 20 21 21 22 24 25 26 28 29 29 30 30 30 30 30 30 30 30 29 28 27 27 27 27 28 28
15 15 14 14 13 13 13 12 12 12 12 12 13 13 13 14 14 14 15 15 16 16 16 16 17 17 17 17 17 17 18 19 19 20 21 21 21 21 21 20 20 20 21 21 21 21 22 23 24 25 26 27 28 29 30 30 31 31 31 31 31 30 29 27 26 26 26 27 28
14 15 15 15 15 15 15 14 14 14 13 13 13 14 14 14 14 15 15 15 15 16 16 16 17 17 17 18 18 18 18 19 20 20 20 21 21 21 21 21 21 21 21 21 22 22 22 23 23 24 25 25 26 27 28 29 30 30 31 32 32 31 29 28 26 25 25 26 27
13 14 14 15 15 16 16 16 15 15 15 14 14 14 15 15 15 15 15 15 15 15 16 16 17 17 18 18 18 18 19 19 19 20 20 20 20 20 20 21 21 21 22 22 22 23 23 23 23 23 23 24 25 25 26 27 28 28 29 30 30 30 29 28 26 25 25 25 26
10 12 13 14 14 15 16 16 16 16 16 16 16 15 16 16 16 16 16 16 16 16 16 16 17 17 18 18 19 19 19 19 19 19 19 19 20 20 20 21 21 21 22 22 23 23 23 23 23 23 23 23 23 24 25 25 26 26 26 27 27 27 27 26 25 24 24 24 25
8 9 10 11 12 13 14 15 15 16 16 16 16 16 16 16 17 17 17 17 17 17 17 17 17 17 17 18 18 19 19 19 19 19 20 20 20 21 21 21 22 22 22 22 22 23 23 23 23 23 23 23 23 23 24 24 25 25 25 24 24 24 24 24 24 24 24 25 25
8 7 8 8 9 10 11 12 13 14 15 15 16 16 17 17 17 18 18 18 18 18 18 18 18 18 18 18 18 19 19 19 19 20 20 21 21 22 22 23 23 23 24 24 23 23 23 23 23 23 22 22 22 23 24 24 25 25 24 23 23 22 22 23 23 24 25 26 26
9 8 8 7 8 8 8 9 10 11 12 13 14 15 16 16 17 18 18 19 19 19 19 19 19 19 19 19 19 19 19 20 20 20 20 21 21 22 23 24 24 25 25 25 25 25 25 24 24 23 23 23 23 23 24 25 25 25 24 23 23 23 22 23 24 25 26 26 26
10 9 9 8 8 8 8 8 8 8 8 9 10 11 13 14 15 16 17 18 19 19 20 20 20 20 20 20 20 20 20 20 20 21 21 21 22 22 23 24 24 25 26 26 26 26 26 25 25 25 24 24 24 24 24 25 25 25 25 24 24 24 24 24 25 25 26 26 26
10 10 10 9 9 9 8 8 8 8 8 8 8 8 9 10 11 12 13 15 16 17 18 19 20 20 21 21 21 21 21 21 22 22 22 22 22 23 23 24 24 25 25 26 26 26 26 26 26 25 25 25 25 25 25 25 26 26 25 25 25 25 26 26 26 26 26 26 26
11 11 11 10 10 10 10 9 9 9 9 8 8 8 8 8 8 9 10 11 12 13 15 16 17 18 19 20 20 21 21 22 22 23 23 23 23 24 24 24 24 25 25 26 26 27 27 26 26 26 26 26 27 27 27 27 27 27 27 27 27 27 27 27 27 27 26 26 26
12 12 12 11 11 11 11 11 11 11 10 10 10 10 10 9 9 9 9 9 10 11 11 12 13 14 15 17 18 19 20 21 21 22 23 23 24 24 25 25 25 26 26 26 27 27 27 27 27 28 28 28 28 28 28 28 28 28 28 28 28 28 28 28 27 27 27 27 27
14 13 13 13 12 12 12 12 12 13 13 13 13 12 12 12 12 11 11 10 10 11 11 11 11 12 13 13 14 15 16 18 19 20 21 22 23 24 25 25 26 27 27 27 28 28 28 28 29 29 29 29 29 29 29 29 29 29 29 29 29 29 29 28 28 27 27 27 27
15 14 14 14 13 13 13 13 14 14 14 14 14 14 15 15 15 14 14 13 13 13 13 13 13 13 13 13 13 13 14 15 16 17 18 19 20 22 23 24 25 27 28 28 29 29 29 29 30 30 30 31 31 31 31 31 31 31 31 30 30 30 30 29 29 28 28 28 28
16 16 15 15 15 14 14 14 14 14 15 15 15 16 16 16 16 16 16 16 16 16 16 15 15 15 15 15 14 14 14 14 15 15 16 17 18 19 20 22 23 25 26 28 28 29 30 30 31 31 32 32 32 33 33 33 33 32 32 32 32 31 31 31 30 30 29 29 29
19 18 17 17 16 16 16 15 15 15 15 15 16 16 16 16 16 16 16 17 17 17 17 17 17 17 17 17 17 16 16 16 16 15 15 16 16 17 18 19 21 22 24 25 27 28 29 30 31 32 32 33 33 34 34 34 35 34 34 34 33 33 33 32 32 31 31 31 30
22 21 20 20 19 18 18 17 17 16 16 16 16 17 17 17 17 17 17 17 17 18 18 18 18 18 18 18 18 18 18 18 17 17 16 16 16 17 17 18 19 20 21 23 24 25 27 29 30 32 33 33 34 34 35 35 36 36 36 36 35 35 35 34 34 33 33 32 32
25 24 23 22 21 21 20 19 19 18 18 18 18 18 18 18 18 18 18 18 18 18 18 18 19 19 19 19 19 19 19 19 19 19 18 18 18 18 18 18 19 19 20 21 21 23 24 26 28 30 32 33 34 35 35 36 37 37 37 38 37 37 36 36 36 35 35 34 34
28 27 26 25 24 23 22 21 20 20 20 20 20 20 19 19 19 19 19 19 19 19 19 19 19 19 20 20 20 20 20 20 20 20 20 20 20 20 20 20 20 20 20 20 20 21 22 23 25 27 29 31 33 35 36 36 37 38 38 39 39 39 39 38 38 37 37 36 35
29 28 27 27 26 25 24 23 22 22 22 22 22 21 21 21 21 20 20 20 20 20 20 20 20 20 20 20 21 21 21 21 21 22 22 22 21 21 21 22 22 21 21 21 20 20 21 22 23 24 26 29 31 33 35 36 37 38 39 39 40 40 40 40 40 39 38 38 37
29 28 28 27 27 26 25 24 24 23 23 23 23 23 23 23 22 22 22 22 21 21 22 22 21 21 21 21 21 21 21 22 23 23 23 23 23 23 22 23 23 23 22 22 21 21 21 22 22 23 25 27 29 31 33 35 37 38 39 40 41 41 42 42 41 41 40 40 39
28 28 28 27 27 26 26 26 25 25 25 24 24 24 24 24 24 24 23 23 23 23 23 23 23 23 23 23 22 22 23 23 24 24 25 25 25 24 24 24 24 23 23 23 23 22 22 22 23 23 24 25 27 29 31 33 35 37 39 40 41 42 42 43 43 43 42 42 41
28 28 27 27 27 26 26 26 26 26 26 26 26 25 25 25 25 25 25 25 25 25 25 25 25 25 25 25 24 24 24 24 25 25 25 26 26 26 26 25 25 25 24 24 23 23 23 23 24 24 24 25 26 28 30 31 33 35 37 39 41 42 43 43 44 44 44 43 43
28 28 27 27 27 26 26 25 25 25 26 26 26 26 26 26 26 26 26 26 26 26 26 26 27 27 27 27 27 27 26 26 26 26 26 26 27 27 27 27 27 26 26 25 24 24 24 24 25 25 25 26 26 28 29 30 32 33 35 37 39 41 42 43 44 44 44 44 44
27 28 28 28 27 27 27 26 26 26 25 25 25 26 26 26 26 26 26 26 27 27 27 27 28 28 29 29 29 29 29 29 28 28 28 28 28 28 28 28 28 28 27 26 25 25 25 25 26 26 27 27 27 28 29 30 31 32 34 35 37 39 41 42 44 44 45 45 45
27 28 28 28 28 28 28 28 27 27 27 26 26 25 25 25 25 25 26 26 27 27 27 28 28 29 29 30 30 31 31 31 31 30 30 30 29 29 30 30 30 30 29 28 27 26 26 26 26 27 28 28 28 29 29 30 31 32 33 34 35 37 39 41 43 44 44 45 45
28 28 28 28 28 28 28 28 29 29 28 28 27 27 26 26 25 25 25 25 26 26 27 28 28 29 30 30 31 31 32 33 33 33 32 32 32 32 32 32 32 31 31 30 29 27 27 26 27 27 28 29 29 30 30 30 31 32 33 34 34 35 37 39 41 43 44 45 45
29 28 28 28 28 28 28 28 29 29 30 30 30 29 28 27 27 26 26 25 25 26 26 27 28 28 29 30 31 31 32 33 33 33 34 33 34 34 34 34 33 33 32 31 31 29 28 28 27 28 28 29 30 31 31 31 31 32 33 34 34 35 35 37 39 41 43 44 45
29 29 29 28 28 28 27 28 28 29 30 30 31 31 30 30 29 28 28 27 27 27 27 27 27 28 28 29 30 31 31 32 33 33 33 34 34 35 35 35 35 34 34 33 32 32 30 30 29 28 29 29 30 31 32 31 31 32 33 34 35 35 35 36 37 39 41 43 45
29 29 29 29 29 28 28 28 28 28 29 30 31 31 32 32 31 31 30 29 29 28 28 27 27 28 28 29 30 30 31 32 32 33 33 34 34 35 35 36 35 35 35 34 34 33 32 31 31 30 30 30 31 31 32 32 32 32 33 34 35 35 35 35 36 38 40 42 44
29 29 30 30 30 29 29 29 28 29 29 30 30 31 32 32 33 33 32 32 31 31 30 29 29 29 29 29 30 30 31 32 32 33 34 34 34 35 35 36 36 36 35 35 35 35 34 33 32 31 31 31 31 32 32 32 32 32 33 33 34 35 36 36 36 37 38 40 42
29 29 30 30 30 30 30 30 30 30 30 30 31 31 31 32 32 33 33 33 33 33 33 32 31 31 30 30 31 31 32 32 32 33 34 34 34 35 35 36 36 36 36 36 36 36 35 35 34 33 32 32 32 32 32 32 33 33 33 32 33 35 36 37 37 37 38 39 41
29 29 29 30 30 31 31 32 32 32 32 32 32 32 32 32 32 33 33 33 34 34 34 34 33 32 32 32 33 33 33 33 33 33 34 34 34 34 35 35 36 36 36 36 36 36 36 36 35 34 33 33 33 33 32 33 33 33 33 33 33 33 35 37 38 38 38 38 39
29 29 30 30 30 31 31 32 33 33 33 33 33 33 33 33 33 33 33 33 34 34 34 35 35 34 34 34 34 34 35 35 34 34 34 34 34 35 35 35 36 36 36 36 36 37 37 36 36 35 35 34 34 33 33 33 34 34 35 34 33 33 34 36 38 39 39 39 39
Wind_Direction
255 258 259 259 257 255 251 248 244 241 239 239 239 239 239 237 235 234 232 231 231 232 233 234 234 234 234 234 233 232 230 229 227 226 225 225 226 227 227 226 224 221 219 216 215 215 216 216 215 214 213 213 214 215 217 218 220 222 223 224 224 225 227 228 230 231 232 233 233
243 246 250 253 254 254 254 253 250 248 245 243 242 241 240 238 236 233 230 226 225 226 228 230 232 233 234 235 234 233 232 231 229 227 226 225 226 226 227 227 226 225 222 219 218 218 219 220 219 218 217 218 219 220 222 224 226 228 229 230 230 231 232 234 235 236 238 239 239
238 238 240 244 248 251 252 253 253 252 250 248 246 244 242 240 238 236 232 228 225 223 223 224 227 230 232 233 233 233 232 231 230 228 227 227 226 227 227 228 229 228 226 224 222 222 222 223 222 222 222 223 224 226 227 229 231 233 235 236 236 237 238 239 239 240 241 241 242
242 241 240 241 243 245 248 249 251 251 251 251 249 248 246 244 242 239 236 233 230 226 223 221 221 224 227 229 231 232 231 231 230 229 228 228 228 228 229 230 230 230 230 228 227 226 225 225 225 225 226 227 229 231 233 234 235 237 238 239 240 242 243 243 243 243 242 242 242
248 245 243 242 242 242 243 244 246 248 249 250 250 250 249 247 245 243 241 238 234 230 226 222 220 219 221 224 227 229 231 231 231 230 229 229 229 230 230 231 232 232 232 232 231 229 228 226 226 227 228 230 232 235 236 236 237 238 239 240 241 242 243 244 244 243 243 242 241
254 251 248 245 244 243 243 242 243 243 245 247 249 250 250 249 248 246 244 241 237 233 229 226 223 220 220 221 224 227 229 231 231 231 230 230 230 231 232 233 234 235 235 235 235 234 232 229 228 227 229 231 234 237 238 238 239 239 239 240 241 241 242 242 242 242 241 241 240
260 258 255 252 250 248 246 245 244 244 244 245 246 247 248 249 248 247 245 243 240 236 233 229 226 223 221 221 223 225 228 231 232 232 231 231 231 231 233 235 236 238 239 239 239 238 237 235 233 232 232 233 236 239 241 241 242 242 242 242 241 241 241 242 241 241 240 239 238
265 264 261 259 257 255 252 251 249 248 247 247 246 246 245 246 246 246 245 244 243 240 237 234 230 227 225 223 223 225 228 231 233 234 234 233 232 232 232 234 236 239 240 242 242 242 242 241 239 238 238 238 240 242 243 245 246 246 245 245 244 243 242 242 242 241 240 239 238
271 269 267 266 264 262 260 258 256 254 253 252 249 248 246 245 244 244 244 244 244 243 241 238 236 234 231 229 228 227 229 231 233 235 237 237 236 235 234 234 235 237 239 241 242 243 244 244 243 242 242 243 243 245 246 247 248 248 248 248 246 245 244 243 243 242 241 240 239
275 273 271 270 268 267 265 264 262 261 259 257 254 252 250 249 248 247 246 245 244 244 243 242 241 240 238 237 234 232 231 231 233 235 238 239 240 240 240 239 238 238 239 240 241 242 243 243 244 244 244 245 245 246 247 248 249 249 249 249 248 247 245 244 243 243 243 242 241
279 277 274 272 270 268 267 266 265 264 262 260 258 257 255 254 253 252 251 249 247 246 245 244 244 244 243 243 242 239 235 233 234 236 239 242 244 245 246 246 245 244 243 243 242 242 242 242 243 243 244 245 246 246 247 248 248 249 250 250 250 249 247 244 243 243 244 244 243
288 284 280 277 274 271 269 267 266 264 263 262 260 258 257 256 255 255 254 254 252 250 248 247 246 246 246 247 247 245 241 236 234 235 238 241 244 246 248 249 249 249 248 247 246 245 244 242 242 242 244 245 246 246 246 246 247 248 248 249 251 251 250 248 246 245 246 246 246
309 300 292 287 282 278 275 272 269 267 265 264 262 260 258 257 256 256 256 256 255 254 252 251 249 248 248 248 249 248 246 241 237 235 235 237 239 241 243 245 247 248 248 248 249 248 247 245 243 243 243 245 247 248 248 247 246 245 245 246 248 249 251 250 248 247 246 246 245
341 328 316 306 298 291 286 281 277 273 271 268 266 264 262 260 259 258 258 257 256 256 255 254 253 252 250 250 250 250 249 246 241 237 236 236 237 238 240 241 243 244 245 246 246 247 246 245 244 242 242 244 248 250 251 250 247 245 243 243 244 246 247 248 247 246 245 243 243
356 352 344 335 325 315 306 299 292 286 281 277 274 271 269 267 265 263 261 260 259 259 258 257 256 255 254 253 252 251 250 249 246 243 240 239 239 239 239 240 241 242 243 244 245 245 244 244 242 241 240 241 244 248 251 252 250 248 244 242 241 241 242 244 245 245 244 243 241
352 352 352 350 346 341 334 328 320 312 304 296 289 284 280 276 273 270 268 266 264 263 262 262 261 260 258 257 256 254 253 252 250 248 245 243 242 241 241 240 240 241 242 244 244 245 245 244 243 241 240 239 240 242 246 249 251 251 248 244 240 238 238 240 242 244 244 243 242
341 342 343 345 345 344 343 341 338 335 331 325 317 309 302 295 288 283 279 276 273 271 269 268 267 266 264 263 262 261 259 257 255 253 251 249 247 245 244 243 242 242 242 243 244 245 246 245 244 243 242 240 239 239 241 244 247 249 250 247 244 240 238 238 239 241 242 242 242
332 332 333 334 335 336 336 336 336 335 334 333 332 328 324 318 312 305 298 292 287 283 280 278 276 274 273 272 271 269 268 266 264 262 260 257 255 252 250 248 246 245 244 244 245 246 246 246 246 245 244 243 242 241 240 241 242 244 246 247 246 243 241 240 239 239 240 240 241
326 324 324 325 326 327 327 328 327 326 326 325 325 325 324 322 320 318 315 310 304 299 295 292 289 286 283 282 280 278 276 275 273 271 269 267 264 262 259 256 253 250 248 247 246 246 246 247 247 246 246 245 244 243 242 242 241 242 243 244 245 244 243 242 241 241 240 240 241
321 319 318 317 318 319 320 320 320 320 319 318 317 316 316 314 313 312 313 312 310 307 305 303 300 297 293 290 288 285 283 281 280 278 276 274 272 270 268 265 262 258 255 252 249 248 247 247 247 247 247 246 245 244 244 243 242 242 242 243 243 244 244 243 243 242 242 241 241
314 313 312 311 310 310 311 311 311 312 312 311 310 309 308 307 305 305 304 304 303 302 302 301 300 298 296 295 292 290 288 286 284 283 281 280 278 277 275 272 270 266 263 259 255 252 250 248 248 247 248 248 247 246 245 245 244 243 243 243 243 244 244 244 243 243 243 243 242
309 308 306 305 303 302 301 300 301 302 302 303 302 301 300 300 299 298 298 297 296 296 295 294 294 293 293 292 291 291 290 288 287 286 285 284 283 281 279 277 275 273 271 267 264 260 256 253 250 249 248 248 248 248 247 247 246 245 244 243 243 243 244 244 244 243 243 243 243
308 305 303 300 298 296 294 292 291 291 292 293 293 293 294 294 294 294 293 293 292 292 291 290 289 288 288 288 288 288 288 288 288 288 288 287 286 284 283 281 279 278 276 274 272 268 264 260 256 253 251 249 249 249 249 248 248 247 246 244 244 243 243 244 243 243 243 243 243
311 308 303 300 296 293 291 288 286 285 284 284 284 285 286 287 289 290 291 291 291 290 289 288 287 287 286 285 285 285 285 285 285 286 286 286 286 286 284 283 282 281 280 279 277 275 272 268 264 260 257 254 252 250 250 249 249 249 248 247 245 245 244 244 244 243 243 243 243
315 312 307 303 299 295 291 288 285 283 281 279 278 278 279 280 282 284 286 287 288 288 288 287 287 286 286 285 284 284 283 283 283 283 283 283 283 284 284 284 283 283 282 281 280 279 277 275 272 268 264 261 257 255 252 251 251 250 250 249 248 247 245 245 244 244 244 243 243
318 314 311 307 303 298 294 290 287 284 281 278 276 274 274 275 276 278 280 281 283 284 285 285 285 285 285 285 285 285 285 284 283 282 281 281 280 281 281 282 283 283 283 283 282 281 280 278 276 273 270 267 263 260 257 255 253 252 251 251 250 249 247 246 246 245 245 245 244
317 315 313 310 306 303 299 294 290 286 283 280 278 275 274 273 273 274 275 276 278 279 280 281 282 282 283 284 285 285 285 285 285 284 283 281 280 279 279 280 281 282 282 283 282 281 279 278 276 274 272 270 267 264 261 259 256 255 253 252 251 250 249 248 247 247 247 246 246
316 314 313 311 309 306 303 299 295 291 287 284 281 279 276 274 273 273 273 274 275 276 277 278 278 280 280 281 282 283 284 285 286 286 285 284 283 281 280 280 280 280 281 281 281 280 278 276 275 272 271 269 268 266 264 262 260 258 256 254 253 251 251 250 249 248 248 247 247
313 313 312 311 310 309 306 304 301 297 293 289 286 283 280 278 276 275 274 274 275 275 276 277 278 278 279 279 280 281 282 284 285 286 286 286 285 284 283 282 281 280 280 280 279 279 278 276 274 272 269 268 267 266 265 263 262 260 258 256 255 253 252 251 250 249 248 248 248
311 311 311 311 311 310 309 307 305 302 299 295 291 288 285 282 279 277 276 275 275 275 276 277 278 278 278 279 280 281 281 282 283 284 285 286 287 287 286 285 283 281 280 279 278 278 277 276 274 272 269 267 265 264 263 263 262 261 260 258 257 255 253 252 250 249 249 248 248
311 311 310 310 310 310 310 309 308 306 303 300 297 293 290 287 284 281 279 277 275 274 274 275 277 278 279 280 281 281 281 281 282 282 283 284 286 286 287 286 285 283 281 279 278 277 276 275 274 272 270 267 265 263 262 262 262 261 260 260 258 257 255 254 252 250 249 248 248
311 311 311 310 310 309 309 309 308 308 306 305 302 299 296 292 289 286 283 281 278 277 275 275 275 276 277 278 279 280 281 281 281 281 282 283 284 285 285 285 285 285 283 282 280 278 277 275 274 273 271 269 267 264 263 262 262 261 260 260 259 258 257 255 253 251 250 248 248
310 310 310 309 309 308 308 308 307 307 307 306 305 303 301 298 295 292 289 286 284 281 279 277 276 276 276 276 277 278 279 279 280 281 281 282 282 283 283 283 284 285 285 285 283 281 278 276 274 273 272 270 268 266 265 263 262 261 261 260 259 258 257 255 254 252 250 249 248
309 308 308 307 307 307 306 306 306 306 305 305 304 304 303 302 300 298 295 293 290 287 284 282 280 279 277 276 276 276 276 277 278 279 280 281 281 281 281 281 282 284 285 286 285 284 282 279 276 274 272 271 269 267 265 264 262 262 261 261 259 257 256 255 254 252 251 249 247
308 308 307 306 305 305 304 304 303 303 303 303 303 303 302 302 301 300 299 297 295 292 290 287 285 283 281 279 278 277 276 276 276 277 277 278 279 279 280 280 281 283 284 285 286 286 285 283 280 277 274 271 269 267 266 264 262 262 262 262 261 259 256 254 253 251 250 249 247
308 307 307 306 305 304 303 302 302 302 301 302 302 302 302 301 300 299 299 298 297 295 293 291 289 287 286 283 281 279 278 277 276 275 275 275 276 277 277 278 280 281 282 283 284 285 285 285 283 281 277 273 270 268 266 264 263 262 262 262 262 261 258 255 252 250 249 247 246
306 307 306 306 305 304 303 302 301 300 300 300 300 301 301 300 300 299 298 298 297 295 294 293 292 290 289 287 285 282 280 279 277 276 275 274 274 275 276 277 278 279 280 281 282 282 283 283 283 282 279 276 273 270 267 265 263 262 261 261 262 262 261 258 254 250 247 246 245
303 304 304 304 304 303 303 302 301 300 299 299 299 299 299 299 299 298 298 298 296 295 294 293 292 291 290 289 287 285 282 280 278 277 276 275 274 274 274 275 276 276 277 278 279 280 280 281 281 281 280 278 275 272 269 266 264 262 260 260 261 262 262 261 258 253 249 245 243
299 300 301 301 301 302 302 301 301 300 299 299 298 297 297 297 297 297 297 296 296 295 294 292 291 291 290 290 288 286 284 281 280 278 277 276 275 274 274 274 274 274 275 276 276 277 277 278 278 279 279 278 276 273 270 267 265 263 261 258 258 260 261 262 260 257 252 247 244
296 296 296 297 297 298 298 299 299 299 299 299 298 296 296 295 295 294 294 294 294 293 293 292 290 290 289 289 288 287 285 283 281 279 278 276 275 274 273 273 272 272 272 273 273 274 275 275 276 276 277 277 276 274 270 266 264 262 260 258 255 256 258 261 261 260 256 251 246
294 293 293 293 293 294 294 295 295 296 297 297 297 296 296 295 294 293 292 292 292 291 291 291 289 288 288 288 287 286 285 284 282 281 279 277 276 275 274 272 271 270 270 270 270 271 271 272 272 273 274 275 275 273 270 266 263 261 259 257 255 253 255 258 260 261 259 256 250
Height
1447 1447 1447 1448 1448 1448 1448 1448 1448 1448 1448 1448 1448 1448 1448 1448 1448 1448 1448 1448 1448 1449 1449 1449 1450 1450 1450 1450 1451 1451 1452 1452 1452 1452 1453 1453 1454 1454 1455 1455 1455 1456 1456 1457 1457 1458 1459 1459 1460 1460 1461 1461 1462 1463 1464 1465 1466 1467 1468 1468 1469 1469 1469 1470 1470 1470 1470 1471 1471
1446 1446 1446 1446 1446 1447 1447 1447 1447 1447 1447 1447 1447 1447 1447 1447 1447 1447 1447 1447 1448 1448 1448 1448 1448 1449 1449 1450 1450 1450 1450 1451 1451 1451 1452 1452 1453 1453 1454 1454 1455 1455 1455 1456 1456 1457 1457 1458 1459 1459 1460 1461 1461 1462 1463 1464 1465 1466 1466 1467 1467 1468 1468 1468 1468 1469 1469 1469 1470
1445 1445 1445 1445 1445 1445 1445 1445 1446 1446 1446 1446 1446 1447 1447 1447 1447 1447 1447 1447 1447 1447 1447 1447 1448 1448 1448 1448 1449 1449 1450 1450 1450 1450 1451 1451 1452 1452 1453 1453 1453 1454 1454 1455 1455 1455 1456 1456 1457 1458 1459 1460 1460 1461 1462 1463 1464 1465 1465 1465 1466 1466 1466 1467 1467 1467 1467 1468 1468
1445 1445 1445 1445 1445 1444 1444 1445 1445 1445 1445 1445 1445 1446 1446 1446 1446 1446 1446 1446 1446 1446 1446 1447 1447 1447 1447 1447 1448 1448 1448 1449 1449 1449 1450 1450 1450 1451 1451 1452 1452 1452 1453 1453 1454 1454 1454 1455 1455 1456 1457 1458 1459 1459 1460 1461 1462 1463 1463 1464 1465 1465 1465 1465 1465 1465 1466 1466 1466
1444 1444 1444 1444 1444 1443 1443 1443 1443 1444 1444 1444 1444 1445 1445 1445 1445 1445 1445 1445 1446 1446 1446 1446 1446 1446 1446 1447 1447 1447 1447 1447 1448 1448 1448 1449 1449 1450 1450 1450 1451 1451 1452 1452 1453 1453 1453 1453 1454 1455 1456 1457 1457 1458 1459 1460 1460 1461 1462 1462 1463 1464 1464 1464 1464 1464 1465 1465 1465
1444 1443 1443 1443 1443 1443 1442 1442 1442 1442 1442 1443 1443 1443 1443 1444 1444 1444 1444 1445 1445 1445 1445 1445 1445 1446 1446 1446 1446 1446 1446 1446 1446 1447 1447 1447 1448 1448 1449 1449 1450 1450 1450 1451 1451 1452 1452 1452 1452 1453 1454 1455 1456 1456 1457 1458 1459 1460 1460 1461 1462 1462 1463 1463 1463 1463 1464 1464 1464
1444 1443 1443 1443 1442 1442 1442 1442 1442 1441 1441 1442 1442 1442 1442 1442 1443 1443 1443 1443 1443 1444 1444 1444 1445 1445 1445 1445 1445 1445 1445 1445 1445 1445 1446 1446 1446 1447 1447 1448 1448 1449 1449 1450 1450 1450 1451 1451 1451 1452 1453 1454 1454 1455 1456 1456 1457 1458 1459 1460 1460 1461 1461 1461 1462 1462 1462 1463 1463
1443 1443 1443 1442 1442 1442 1441 1441 1441 1441 1441 1441 1441 1441 1441 1441 1441 1441 1442 1442 1442 1442 1443 1443 1443 1444 1444 1444 1445 1445 1445 1445 1445 1445 1445 1445 1445 1445 1445 1446 1447 1447 1448 1448 1449 1449 1450 1450 1450 1451 1451 1452 1453 1454 1454 1455 1455 1456 1457 1458 1458 1459 1459 1460 1460 1460 1460 1461 1461
1443 1443 1442 1442 1442 1441 1441 1441 1441 1441 1440 1440 1440 1440 1440 1440 1440 1440 1440 1441 1441 1441 1441 1442 1442 1442 1443 1443 1443 1443 1444 1444 1444 1444 1444 1444 1444 1444 1444 1445 1445 1446 1446 1447 1448 1448 1448 1449 1449 1450 1450 1451 1451 1452 1453 1453 1454 1454 1455 1455 1456 1457 1457 1458 1458 1458 1459 1459 1460
1443 1442 1442 1442 1441 1441 1441 1440 1440 1440 1440 1440 1440 1440 1440 1440 1440 1440 1440 1440 1440 1440 1440 1440 1441 1441 1441 1441 1442 1442 1442 1442 1442 1442 1443 1443 1443 1443 1443 1444 1444 1445 1445 1446 1446 1447 1447 1447 1448 1448 1449 1450 1450 1450 1451 1451 1452 1452 1453 1453 1454 1455 1455 1455 1456 1456 1457 1457 1458
1443 1442 1442 1441 1441 1440 1440 1440 1440 1440 1440 1439 1439 1439 1439 1439 1439 1439 1439 1439 1439 1439 1439 1439 1440 1440 1440 1440 1440 1440 1440 1440 1441 1441 1441 1441 1442 1442 1442 1442 1443 1443 1444 1445 1445 1445 1446 1446 1447 1447 1448 1449 1449 1449 1450 1450 1450 1451 1451 1452 1452 1453 1453 1454 1454 1455 1455 1456 1456
1443 1442 1441 1441 1440 1440 1440 1439 1439 1439 1439 1439 1438 1438 1438 1438 1438 1438 1438 1437 1438 1438 1438 1438 1438 1438 1438 1439 1439 1439 1439 1439 1439 1440 1440 1440 1440 1440 1441 1441 1441 1442 1442 1443 1444 1444 1445 1445 1446 1446 1447 1447 1448 1448 1448 1449 1449 1450 1450 1450 1450 1451 1451 1451 1452 1453 1454 1454 1455
1443 1442 1442 1441 1440 1440 1439 1439 1439 1438 1438 1438 1437 1437 1437 1437 1437 1437 1436 1436 1436 1436 1436 1436 1436 1437 1437 1437 1437 1437 1438 1438 1438 1438 1439 1439 1439 1439 1440 1440 1440 1440 1441 1441 1442 1442 1443 1444 1444 1445 1445 1446 1446 1447 1447 1447 1448 1448 1448 1449 1449 1450 1450 1450 1451 1451 1452 1453 1453
1444 1443 1442 1441 1440 1440 1439 1439 1438 1438 1437 1437 1437 1436 1436 1436 1436 1436 1435 1435 1435 1435 1435 1435 1435 1435 1435 1436 1436 1436 1436 1436 1436 1437 1437 1437 1438 1438 1438 1438 1439 1439 1439 1440 1440 1440 1441 1442 1443 1443 1444 1444 1445 1445 1445 1446 1446 1446 1446 1447 1448 1448 1449 1449 1449 1450 1450 1451 1452
1444 1443 1442 1441 1441 1440 1439 1439 1438 1438 1437 1436 1436 1436 1435 1435 1435 1435 1435 1435 1435 1434 1434 1434 1434 1434 1434 1434 1434 1434 1435 1435 1435 1435 1436 1436 1437 1437 1437 1437 1438 1438 1438 1438 1438 1439 1440 1440 1441 1441 1442 1442 1443 1444 1444 1445 1445 1445 1445 1445 1446 1447 1447 1448 1448 1448 1449 1449 1450
1444 1443 1443 1442 1441 1440 1440 1439 1438 1437 1437 1436 1436 1435 1435 1435 1434 1434 1434 1434 1434 1433 1433 1433 1433 1433 1433 1433 1433 1433 1433 1433 1434 1434 1434 1435 1435 1435 1436 1436 1436 1437 1437 1437 1437 1437 1438 1438 1439 1439 1440 1440 1441 1442 1442 1443 1443 1443 1444 1444 1444 1445 1445 1446 1446 1447 1447 1447 1448
1444 1443 1443 1442 1441 1440 1440 1439 1438 1437 1437 1436 1435 1435 1434 1434 1434 1433 1433 1433 1433 1432 1432 1432 1432 1432 1432 1432 1432 1432 1432 1432 1432 1432 1433 1433 1434 1434 1434 1435 1435 1435 1435 1435 1435 1436 1436 1436 1437 1437 1438 1438 1439 1440 1440 1440 1441 1442 1442 1442 1443 1443 1444 1444 1445 1445 1445 1445 1446
1443 1443 1442 1441 1441 1440 1439 1439 1438 1437 1436 1436 1435 1435 1434 1434 1433 1433 1432 1432 1432 1432 1431 1431 1431 1431 1431 1431 1431 1431 1431 1431 1431 1431 1431 1432 1432 1432 1433 1433 1433 1434 1434 1434 1434 1434 1435 1435 1435 1435 1436 1436 1437 1437 1438 1438 1439 1440 1440 1441 1441 1441 1442 1442 1442 1443 1443 1444 1444
1442 1442 1441 1441 1440 1440 1439 1438 1438 1437 1436 1435 1435 1434 1434 1433 1433 1432 1432 1431 1431 1431 1430 1430 1430 1430 1430 1430 1430 1430 1430 1430 1430 1430 1430 1430 1430 1430 1431 1431 1431 1432 1432 1432 1433 1433 1433 1433 1434 1434 1434 1434 1435 1435 1435 1436 1436 1437 1438 1439 1439 1439 1440 1440 1440 1440 1441 1441 1442
1441 1441 1440 1440 1439 1439 1438 1438 1437 1436 1435 1435 1434 1433 1433 1432 1432 1431 1431 1430 1430 1430 1430 1430 1429 1429 1429 1429 1429 1429 1428 1428 1428 1428 1428 1429 1429 1429 1429 1429 1430 1430 1430 1430 1431 1431 1432 1432 1432 1432 1432 1432 1433 1433 1433 1434 1434 1435 1435 1436 1436 1437 1437 1438 1438 1438 1439 1439 1440
1441 1440 1440 1439 1438 1438 1437 1437 1436 1436 1435 1434 1434 1433 1432 1432 1431 1430 1430 1430 1429 1429 1429 1429 1428 1428 1428 1428 1428 1427 1427 1427 1427 1427 1427 1427 1427 1427 1427 1427 1427 1428 1428 1428 1429 1429 1430 1430 1430 1430 1430 1430 1431 1431 1431 1431 1432 1432 1433 1433 1434 1434 1435 1435 1435 1436 1436 1437 1438
1440 1440 1439 1438 1437 1437 1436 1436 1435 1435 1434 1434 1433 1432 1432 1431 1430 1430 1430 1429 1429 1428 1428 1427 1427 1427 1427 1427 1426 1426 1426 1426 1426 1426 1426 1426 1426 1426 1426 1426 1425 1425 1426 1426 1427 1427 1428 1428 1428 1429 1429 1429 1429 1429 1429 1429 1430 1430 1430 1430 1431 1431 1432 1432 1433 1433 1434 1435 1435
1440 1439 1438 1437 1437 1436 1435 1435 1434 1434 1434 1433 1432 1432 1431 1430 1430 1429 1429 1428 1428 1427 1427 1426 1426 1426 1426 1425 1425 1425 1425 1425 1425 1425 1425 1425 1424 1424 1424 1424 1424 1424 1424 1424 1425 1425 1425 1426 1426 1426 1427 1427 1427 1427 1427 1427 1427 1428 1428 1428 1429 1429 1429 1430 1430 1431 1431 1432 1433
1439 1438 1438 1437 1436 1435 1434 1434 1433 1433 1432 1432 1431 1431 1430 1430 1429 1428 1428 1427 1427 1426 1426 1425 1425 1425 1425 1424 1424 1424 1424 1424 1423 1423 1423 1423 1423 1423 1423 1422 1422 1422 1422 1423 1423 1423 1423 1424 1424 1424 1425 1425 1425 1425 1425 1425 1425 1425 1426 1426 1426 1427 1427 1427 1428 1428 1429 1430 1430
1438 1437 1437 1436 1435 1434 1433 1432 1432 1431 1431 1430 1430 1430 1429 1428 1428 1427 1427 1426 1426 1425 1425 1425 1424 1424 1423 1423 1423 1423 1422 1422 1422 1422 1422 1421 1421 1421 1421 1421 1420 1420 1421 1421 1421 1421 1421 1422 1422 1422 1422 1422 1423 1423 1423 1423 1423 1424 1424 1424 1424 1424 1425 1425 1425 1426 1426 1427 1428
1437 1436 1435 1435 1434 1433 1432 1431 1430 1430 1430 1429 1429 1428 1427 1427 1426 1426 1425 1425 1425 1424 1424 1423 1423 1422 1422 1422 1421 1421 1421 1421 1421 1420 1420 1420 1420 1419 1419 1419 1419 1419 1419 1419 1419 1420 1420 1420 1420 1420 1420 1420 1420 1420 1421 1421 1421 1421 1421 1422 1422 1422 1422 1422 1423 1423 1424 1425 1425
1437 1436 1435 1434 1433 1432 1431 1430 1430 1429 1428 1427 1427 1426 1426 1425 1425 1424 1424 1424 1423 1423 1423 1422 1422 1421 1421 1420 1420 1420 1420 1420 1420 1419 1419 1419 1418 1418 1418 1417 1417 1417 1417 1417 1417 1418 1418 1418 1418 1418 1418 1418 1418 1418 1418 1419 1419 1419 1419 1419 1419 1420 1420 1420 1420 1421 1422 1422 1423
1437 1436 1435 1434 1433 1431 1430 1429 1428 1427 1427 1426 1425 1425 1424 1424 1423 1423 1422 1422 1422 1421 1421 1420 1420 1420 1420 1419 1419 1419 1419 1418 1418 1418 1418 1417 1417 1417 1416 1416 1416 1415 1415 1415 1415 1415 1415 1415 1416 1416 1416 1416 1416 1416 1416 1416 1416 1416 1416 1416 1417 1417 1417 1418 1418 1419 1419 1420 1420
1437 1436 1435 1433 1432 1430 1430 1428 1427 1426 1425 1425 1424 1423 1423 1422 1421 1421 1420 1420 1420 1420 1419 1419 1418 1418 1418 1417 1417 1417 1417 1417 1416 1416 1416 1416 1416 1415 1415 1415 1415 1414 1414 1414 1414 1414 1414 1414 1414 1414 1414 1414 1414 1414 1414 1414 1414 1414 1414 1414 1414 1414 1415 1415 1416 1416 1417 1417 1418
1437 1436 1434 1433 1431 1430 1429 1428 1426 1425 1425 1424 1423 1422 1421 1420 1420 1419 1419 1418 1418 1417 1417 1417 1416 1416 1416 1415 1415 1415 1415 1415 1415 1414 1414 1414 1414 1414 1414 1413 1413 1413 1412 1412 1412 1412 1411 1411 1411 1411 1411 1411 1411 1411 1411 1411 1411 1411 1411 1411 1412 1412 1412 1413 1413 1414 1414 1415 1415
1436 1435 1433 1432 1430 1429 1428 1427 1426 1425 1424 1423 1422 1421 1420 1419 1418 1418 1417 1416 1416 1415 1415 1415 1414 1414 1413 1413 1413 1413 1413 1413 1412 1412 1412 1412 1412 1412 1411 1411 1411 1411 1411 1410 1410 1410 1410 1410 1409 1409 1409 1409 1409 1408 1408 1408 1408 1409 1409 1409 1409 1410 1410 1410 1411 1411 1411 1412 1412
1434 1433 1431 1430 1429 1428 1427 1426 1425 1424 1423 1422 1421 1420 1419 1418 1417 1416 1415 1415 1414 1413 1413 1412 1412 1411 1411 1411 1411 1410 1410 1410 1410 1410 1410 1410 1409 1409 1409 1409 1409 1409 1409 1409 1409 1408 1408 1408 1407 1407 1407 1407 1406 1406 1405 1405 1405 1405 1406 1406 1407 1407 1407 1408 1408 1409 1409 1410 1410
1432 1431 1430 1428 1427 1426 1425 1425 1424 1423 1422 1421 1420 1420 1418 1417 1416 1415 1414 1413 1412 1411 1411 1410 1410 1409 1409 1409 1409 1408 1408 1408 1408 1407 1407 1407 1407 1406 1406 1406 1406 1406 1406 1406 1406 1406 1406 1406 1405 1405 1405 1404 1404 1404 1403 1403 1403 1402 1403 1403 1404 1405 1405 1405 1405 1406 1406 1407 1407
1430 1429 1428 1427 1425 1425 1424 1423 1423 1422 1421 1420 1419 1418 1417 1416 1415 1413 1412 1411 1410 1410 1409 1408 1407 1407 1406 1406 1406 1406 1405 1405 1405 1405 1405 1404 1404 1404 1403 1403 1403 1403 1403 1403 1403 1403 1403 1403 1403 1403 1403 1402 1402 1401 1400 1400 1400 1400 1400 1400 1400 1401 1402 1403 1403 1404 1404 1405 1405
1428 1427 1426 1425 1424 1424 1423 1422 1422 1421 1420 1419 1418 1417 1416 1415 1413 1412 1411 1410 1409 1408 1406 1405 1405 1405 1404 1404 1404 1403 1403 1403 1403 1402 1402 1402 1401 1401 1400 1400 1400 1400 1400 1400 1400 1400 1400 1400 1400 1400 1400 1400 1399 1399 1398 1398 1397 1397 1397 1397 1397 1398 1399 1400 1400 1401 1401 1402 1402
1426 1425 1424 1423 1422 1422 1421 1421 1420 1420 1419 1418 1417 1415 1415 1413 1412 1411 1410 1409 1407 1406 1405 1404 1403 1402 1402 1401 1401 1400 1400 1400 1400 1400 1399 1399 1398 1398 1397 1397 1397 1397 1397 1397 1397 1397 1397 1397 1397 1397 1397 1397 1396 1396 1395 1395 1395 1395 1394 1394 1394 1395 1395 1396 1397 1398 1399 1399 1399
1424 1423 1422 1421 1420 1420 1419 1419 1418 1417 1417 1416 1415 1414 1413 1412 1410 1410 1408 1407 1406 1404 1403 1402 1401 1400 1400 1399 1399 1398 1398 1398 1397 1397 1396 1396 1395 1395 1395 1394 1394 1394 1394 1394 1394 1394 1394 1395 1395 1395 1394 1394 1393 1393 1393 1392 1392 1392 1392 1392 1392 1392 1392 1393 1394 1395 1395 1396 1396
1423 1422 1420 1420 1419 1418 1417 1416 1415 1415 1414 1413 1413 1412 1411 1410 1409 1408 1407 1405 1404 1402 1401 1400 1399 1398 1397 1397 1396 1396 1395 1395 1395 1394 1394 1393 1393 1392 1392 1391 1391 1391 1391 1391 1391 1391 1391 1392 1392 1392 1391 1391 1390 1390 1390 1390 1390 1389 1389 1389 1389 1389 1390 1390 1391 1391 1392 1393 1393
1421 1420 1419 1418 1417 1415 1415 1414 1413 1412 1411 1410 1410 1409 1409 1408 1407 1406 1405 1404 1402 1400 1399 1398 1397 1396 1395 1395 1394 1393 1392 1392 1392 1391 1391 1390 1390 1390 1389 1389 1389 1389 1389 1388 1388 1388 1388 1389 1389 1389 1389 1388 1388 1387 1387 1387 1387 1387 1387 1387 1387 1387 1387 1387 1388 1388 1389 1390 1390
1420 1419 1417 1416 1415 1414 1413 1411 1410 1409 1408 1408 1407 1406 1406 1405 1405 1404 1403 1402 1400 1399 1397 1395 1394 1394 1393 1392 1391 1390 1390 1389 1389 1389 1388 1388 1387 1387 1387 1386 1386 1386 1386 1386 1385 1385 1385 1386 1386 1386 1386 1385 1385 1385 1385 1385 1384 1384 1384 1384 1385 1385 1384 1384 1385 1385 1385 1386 1387
1417 1416 1415 1414 1413 1412 1411 1409 1408 1407 1406 1405 1404 1403 1403 1402 1402 1401 1401 1400 1398 1397 1395 1393 1392 1391 1391 1390 1389 1388 1387 1386 1386 1386 1385 1385 1385 1384 1384 1383 1383 1383 1383 1383 1383 1383 1383 1383 1383 1383 1383 1383 1382 1382 1382 1382 1381 1381 1381 1381 1382 1382 1382 1381 1381 1382 1382 1383 1384